Regional Weather Roundup
Issued by NWS

Home | Current Version | Previous Version | Text Only | Print | Product List | Glossary On
Versions: 1 2 3 4 5 6 7 8 9 10 11 12 13 14 15 16 17 18 19 20 21 22 23 24 25 26 27 28 29 30 31 32 33 34 35 36 37 38 39 40 41 42 43 44 45 46 47 48 49 50
000
ASUS45 KABQ 281410
RWRNM
NEW MEXICO REGIONAL WEATHER ROUNDUP
NATIONAL WEATHER SERVICE ALBUQUERQUE NM
700 AM MST TUE FEB 28 2017

NOTE: "FAIR" MEANS FEW OR NO CLOUDS BELOW 12,000 FEET AGL WITH NO
       SIGNIFICANT WEATHER OR OBSTRUCTIONS TO VISION.

      THIS PRODUCT IS RELEASED AS TWO VERSIONS.  ONE VERSION NEAR
      THE TOP OF THE HOUR CONTAINING PRELIMINARY DATA FROM ALBUQUERQUE
      AND OTHER STATIONS.  A FINAL VERSION WITH ADDITIONAL DATA IS
      ISSUED ABOUT 10 MINUTES AFTER THE HOUR.

NMZ501-503-504-510>518-281500-
NORTHWEST PLATEAU/NORTHCENTRAL MOUNTAINS

CITY           SKY/WX    TMP DP  RH WIND       PRES   REMARKS
FARMINGTON     LGT SNOW  31  31 100 W14       29.76R VSB 1   WCI  21
LOS ALAMOS     CLOUDY    37  30  74 S12       29.80F WCI  30
SANTA FE       MOCLDY    41  29  62 SW9       29.80F
TAOS             N/A     34  25  69 SW9       29.77F WCI  26
ANGEL FIRE     SNOW      31  28  90 S12G17    29.77R VSB 1/2 WCI  21

$$
NMZ402-403-502-505>509-281500-
WESTCENTRAL MOUNTAINS/SOUTHWEST MOUNTAINS

CITY           SKY/WX    TMP DP  RH WIND       PRES   REMARKS
GALLUP         LGT SNOW  34  32  92 SW17G26   29.80R FOG     WCI  23
GRANTS         CLOUDY    39  29  67 S9        29.82S WCI  33
SILVER CITY    CLOUDY    47  26  44 SW10      29.94S

$$
NMZ407-409-411-412-281500-
SOUTHERN DESERTS

CITY           SKY/WX    TMP DP  RH WIND       PRES   REMARKS
DEMING         FAIR      53  23  31 SW12      29.92R
LAS CRUCES     FAIR      47  21  35 S7        29.95S
HOLLOMAN AFB   FAIR      52  22  30 S10       29.96R
ALAMOGORDO     FAIR      55  19  24 S13       29.94R
T OR C         FAIR      52  22  30 SW15      29.86S

$$
NMZ519>523-281500-
CENTRAL VALLEYS/CENTRAL HIGHLANDS

CITY           SKY/WX    TMP DP  RH WIND       PRES   REMARKS
ALBUQUERQUE    MOCLDY    46  28  49 S13       29.81F
DOUBLE EAGLE   PTCLDY    43  28  56 S16G26    29.81R
MORIARTY ARPT  FAIR      44  30  57 S20       29.82F
CLINES CORNERS FAIR      39  26  59 SW29G35   29.81F WCI  27
BELEN          FAIR      46  23  40 S17       29.81F
SOCORRO        FAIR      54  12  19 SW31G37   29.81S

$$
NMZ524>526-539-540-281500-
SOUTHCENTRAL MOUNTAINS

CITY           SKY/WX    TMP DP  RH WIND       PRES   REMARKS
RUIDOSO        FAIR      45  12  26 SW40G58   29.85F

$$
NMZ527>531-281500-
NORTHEAST HIGHLANDS/NORTHEAST PLAINS

CITY           SKY/WX    TMP DP  RH WIND       PRES   REMARKS
LAS VEGAS      MOCLDY    39  28  64 SW24      29.77F WCI  28
RATON          FAIR      33  25  72 S3        29.69S
CLAYTON        FAIR      47  26  44 SW26G35   29.69R

$$
NMZ532>537-281500-
EASTCENTRAL PLAINS

CITY           SKY/WX    TMP DP  RH WIND       PRES   REMARKS
TUCUMCARI      FAIR      53  27  36 SW21      29.75S
CANNON AFB     MOCLDY    53  28  37 SW13      29.83S
CLOVIS AIRPORT FAIR      54  27  35 SW12      29.84S

$$
NMZ028-029-538-281500-
SOUTHEAST PLAINS

CITY           SKY/WX    TMP DP  RH WIND       PRES   REMARKS
ROSWELL        FAIR      54  22  28 S14       29.95
ARTESIA        FAIR      50  21  32 S13       29.88R
CARLSBAD       FAIR      53  22  29 S7        29.88R
HOBBS          CLEAR     50  27  40 S7        29.91R


$$




USA.gov is the U.S. government's official web portal to all federal, state and local government web resources and services.